Location: Unspecified
(33.6682°S, 0.0000°E)
Time: 18:33:26
(UTC+00:00)

Vanguard 2 Rocket - Pass Details

Date: 20 June 2019
Orbit: 554 x 3326 km, 32.9° (Epoch: 18 July)

Event Time Altitude Azimuth Distance (km) Brightness Sun altitude
Rises 06:29:05 0° 332° (NNW) 7,231 11.4 -7.4°
Reaches altitude 10° 06:35:27 10° 342° (NNW) 6,005 11.2 -6.2°
Maximum altitude 06:48:50 27° 30° (NNE) 3,939 10.9 -3.7°
Drops below altitude 10° 06:58:24 10° 82° (E) 4,253 11.9 -1.9°
Sets 07:01:53 0° 94° (E) 4,860 11.8 -1.2°
